Showing default

WEINA 1A, 43169

Orbit data source: Space-Track

WEINA 1A, 43169 is a payload satellite owned by Weina (CN) in LEO that was launched on Thu, 25 Jan 2018 UTC via a CHANG ZHENG 2C launch vehicle from the Xichang Space Center, China (XSC). Payload-class satellites include a variety of spacecraft equipped with specific instruments for various scientific and technological missions. These include communications satellites like Starlink; space stations such as the ISS; scientific satellites like the Hubble; Earth observation satellites from companies like Planet Labs, Umbra, and HawkEye 360; GPS; miniature CubeSats for education and research; and military/defense satellites.

Loading next visibility...
Identifier
43169, 2018-011A
Orbit
LEO
Country
Flag of CNCN / PRC
Related business
Manufacturer
SECM
Mission
Operational Defense Technology
Bus & Motor
Unknown
Mass
~5 kg wet, ~5 kg dry
Launch date (UTC)
2018-01-25 (8 years ago)
Launch vehicle
CHANG ZHENG 2C
Launch site
Xichang Space Center, China (XSC)
Object type
Payload
Rocket body
Debris
Shape & HBR
Box, 0.1 m
Radar Cross Section
0.025 m², Medium (>0.1 m² and < 1m²)

Expand to show TLE details & history
Last TLE update: 2 days ago

TLE from 2 days ago
0 WEINA 1A
1 43169U 18011A   26171.32188884  .00001575  00000-0  12315-3 0  9996
2 43169  34.9940 142.8279 0001761  64.0741 296.0148 15.01000921458594
Epoch: 2026-06-20T07:43Z
TLE epoch observation values (Epoch: 2026-06-20T07:43:31.195Z)
Latitude
-0.00003°
Longitude
118.4097°
Altitude
562.19 km
Speed
7.583 km/s
True Right ascension
09h 31m 18s
True Declination
0° 00' 00"
Sunlit
Object was in daylight at epoch
Visualization orbit readout
Latitude
Unknown
Longitude
Unknown
Altitude
Unknown
Speed
Unknown
Apparent Right ascension
Unknown
Apparent Declination
Unknown
Sunlit
N/A
Visualization observer readout
Local Sidereal Time
23:26:58
Azimuth
Unknown
Elevation
Unknown
Doppler factor
Unknown
Orbital elements
Apogee altitude
568.251 km
Perigee altitude
565.805 km
Semi-major axis
6,945.165 km
Eccentricity
0.00018
Inclination
34.994°
RAAN
142.8279°
Arg. of periapsis
64.0741°
True anomaly
295.99666°
Mean anomaly
296.0148°
Eccentric anomaly
296.00573°
Mean motion
3.7499 °/min
Orbital period
96 mins
BSTAR
0.00012315
Loading maneuver chart data...
Computing Atmospheric mass density...
Loading historical data...
Loading historical data...
Loading historical data...
Loading historical data...
Loading historical data...
Loading historical data...
Loading historical data...
Other satellites on launch #11 in the year 2018 (2018-01-25 UTC)

Documentation

Showing up to 5 results
|